Погода в Атакуме

Турция     41°19′57″N   36°08′57″E
темп.,
°C
ветер,
м/с
пор.,
м/с
влажн.,
%
обл.,
%
осадки,
мм/ч
давл.,
гПа
погр.,
м
4 марта, чт
чт400:00+3с238784 0.4 1030312
03:00+2зюз118868 0.6 103079
06:00+1юз118751 0.1 102933
09:00+3ююв017253 0.1 1028436
12:00+6в22570 0.0 1026892
15:00+6всв33620 0.0 1024632
18:00+4в23764 0.0 1023307
21:00+3ю12834 0.0 102336
5 марта, пт
пт500:00+4юз33650 0.0 102236
03:00+3юз44580 0.0 102252
06:00+3юз44570 0.0 102263
09:00+7юз47520 0.0 1021251
12:00+13юз46380 0.0 1020695
15:00+15зюз35340 0.0 1019941
18:00+12ю12480 0.0 101923
21:00+9юз45470 0.0 102059
6 марта, сб
сб600:00+8юз56495 0.0 102185
03:00+7юз56523 0.0 1021102
06:00+6юз335424 0.0 102136
09:00+9юз345118 0.0 1021133
12:00+14зюз2535100 0.0 1020930
15:00+15сз2437100 0.0 1018834
18:00+9ссз3577100 0.0 1019334
21:00+7сз3491100 0.1 1022294
7 марта, вс
вс700:00+5ссз4792100 2.6 1024485
03:00+3с5897100 6.3 1025470
06:00+1с2496100 1.9 1027273
09:00+1ссв2397100 2.7 1028249
12:00+1св2397100 1.4 1028272
15:00+2всв3488100 1.9 1026487
18:00+1всв2489100 0.2 1025431
21:000в1393100 0.4 1025282
8 марта, пн
пн800:000ссв1196100 0.1 1024143
03:00+1с0194100 0.2 1023121
06:000зсз009496 0.0 102276
09:00+2юз018267 0.0 1022251
12:00+6вюв236912 0.0 1020736
15:00+7всв337145 0.0 1019687
18:00+5всв338845 0.0 1017300
21:00+3с019254 0.0 101872